KS5S Weather Reports


time (UTC)temp
F
wind
direction
speed
knots
gust
knots
rain 1hr
in
rain 24hr
in
rain mn
in
humidity
%
barometer
mb
20260506144618 54 0 3.5 10.4 0.00 0.00 0.00 87 1012.8
20260506144114 54 349 6.1 9.6 0.00 0.00 0.00 86 1012.5
20260506143612 55 310 4.3 7.8 0.00 0.00 0.00 85 1014.0
20260506143110 55 326 3.5 7.8 0.00 0.00 0.00 86 1013.7
20260506142608 55 30 0.9 10.4 0.00 0.00 0.00 86 1013.8
20260506142106 55 322 4.3 10.4 0.00 0.00 0.00 85 1013.0
20260506141603 55 354 4.3 6.1 0.00 0.00 0.00 85 1012.7
20260506141101 55 1 6.1 9.6 0.00 0.00 0.00 85 1011.9
20260506140558 55 357 6.1 12.2 0.00 0.00 0.00 85 1011.5
20260506140056 55 332 3.5 13.0 0.00 0.00 0.00 84 1011.9
20260506135552 56 5 4.3 12.2 0.00 0.00 0.00 83 1011.7
20260506135048 56 354 4.3 9.6 0.00 0.00 0.00 82 1011.7
20260506134545 56 345 5.2 9.6 0.00 0.00 0.00 81 1011.8
20260506134041 56 338 7.0 8.7 0.00 0.00 0.00 81 1011.9
20260506133538 56 330 4.3 9.6 0.00 0.00 0.00 81 1011.5
20260506133035 56 20 9.6 13.0 0.00 0.00 0.00 80 1011.3
20260506132533 56 349 3.5 10.4 0.00 0.00 0.00 80 1011.5
20260506132030 57 0 5.2 9.6 0.00 0.00 0.00 79 1011.1
20260506131527 57 25 7.0 15.6 0.00 0.00 0.00 79 1010.9
20260506131023 57 1 4.3 10.4 0.00 0.00 0.00 79 1010.8
20260506130520 57 8 7.0 13.0 0.00 0.00 0.00 79 1010.6
20260506130018 57 23 8.7 13.0 0.00 0.00 0.00 80 1010.5
20260506125516 57 9 7.8 14.8 0.00 0.00 0.00 81 1010.5
20260506125013 57 348 2.6 12.2 0.00 0.00 0.00 81 1010.8
20260506124511 57 0 5.2 9.6 0.00 0.00 0.00 81 1010.4
20260506124009 57 0 4.3 9.6 0.00 0.00 0.00 80 1010.6
20260506123506 57 331 7.0 12.2 0.00 0.00 0.00 80 1010.5
20260506123004 57 4 5.2 11.3 0.00 0.00 0.00 80 1010.4
20260506122501 57 351 3.5 7.8 0.00 0.00 0.00 81 1010.2
20260506121959 57 13 7.0 11.3 0.00 0.00 0.00 82 1010.4
20260506121456 57 0 5.2 14.8 0.00 0.00 0.00 81 1010.1
20260506120952 57 27 4.3 11.3 0.00 0.00 0.00 81 1010.0
20260506120450 57 10 7.0 10.4 0.00 0.00 0.00 81 1010.2
20260506115947 58 13 4.3 13.0 0.00 0.00 0.00 81 1010.1
20260506115445 58 15 5.2 7.8 0.00 0.00 0.00 81 1009.8
20260506114943 58 357 3.5 10.4 0.00 0.00 0.00 81 1010.0
20260506114440 58 22 1.7 9.6 0.00 0.00 0.00 81 1010.1
20260506113939 58 337 4.3 6.1 0.00 0.00 0.00 82 1009.8
20260506113436 58 7 2.6 6.1 0.00 0.00 0.00 82 1009.8
20260506112932 58 5 7.0 13.9 0.00 0.00 0.00 82 1009.6
20260506112430 58 316 0.9 10.4 0.00 0.00 0.00 82 1009.6
20260506111927 58 1 3.5 11.3 0.00 0.00 0.00 82 1009.6
20260506111425 59 348 7.0 12.2 0.00 0.00 0.00 82 1009.6
20260506110922 59 334 3.5 8.7 0.00 0.00 0.00 82 1009.4
20260506110420 59 0 4.3 12.2 0.00 0.00 0.00 82 1009.2
20260506105916 59 307 4.3 10.4 0.00 0.00 0.00 82 1009.1
20260506105413 59 31 2.6 12.2 0.00 0.00 0.00 82 1009.3
20260506104910 60 0 4.3 5.2 0.00 0.00 0.00 81 1008.9
20260506104408 60 7 3.5 6.1 0.00 0.00 0.00 81 1008.8
20260506103906 60 355 2.6 5.2 0.00 0.00 0.00 80 1009.1
20260506103403 60 320 2.6 9.6 0.00 0.00 0.00 80 1008.8
20260506102900 60 288 1.7 7.0 0.00 0.00 0.00 81 1008.7
20260506102358 60 1 3.5 6.1 0.00 0.00 0.00 81 1008.7
20260506101855 60 359 3.5 10.4 0.00 0.00 0.00 81 1008.5
20260506101351 60 329 2.6 7.8 0.00 0.00 0.00 81 1008.6
20260506100849 61 353 2.6 7.0 0.00 0.00 0.00 80 1008.5
20260506100347 61 343 2.6 7.0 0.00 0.00 0.00 80 1008.3
20260506095845 61 21 4.3 8.7 0.00 0.00 0.00 80 1008.0
20260506095342 61 321 2.6 4.3 0.00 0.00 0.00 80 1008.3
20260506094838 61 314 1.7 5.2 0.00 0.00 0.00 80 1008.2
20260506094338 61 5 4.3 7.0 0.00 0.00 0.00 80 1007.9
20260506093835 62 12 1.7 5.2 0.00 0.00 0.00 80 1008.0
20260506093332 62 16 1.7 6.1 0.00 0.00 0.00 80 1008.2
20260506092830 62 326 2.6 6.1 0.00 0.00 0.00 80 1007.9
20260506092327 62 330 2.6 6.1 0.00 0.00 0.00 80 1007.7
20260506091824 62 5 3.5 7.8 0.00 0.00 0.00 81 1008.1
20260506091322 62 348 3.5 6.1 0.00 0.00 0.00 81 1008.2
20260506090819 62 14 4.3 6.1 0.00 0.00 0.00 81 1007.9
20260506090317 62 1 3.5 7.8 0.00 0.00 0.00 81 1007.9
20260506085813 62 0 3.5 4.3 0.00 0.00 0.00 81 1007.9
20260506085309 63 353 2.6 7.0 0.00 0.00 0.00 82 1007.9
20260506084806 63 7 0.0 4.3 0.00 0.00 0.00 81 1007.7
20260506084302 63 3 2.6 7.8 0.00 0.00 0.00 82 1007.5
20260506083759 63 4 0.9 5.2 0.00 0.00 0.00 82 1007.8
20260506083257 63 11 3.5 7.8 0.00 0.00 0.00 82 1007.7
20260506082754 63 358 3.5 7.8 0.00 0.00 0.00 82 1007.7
20260506082250 63 12 5.2 8.7 0.00 0.00 0.00 82 1007.4
20260506081747 63 4 0.9 6.1 0.00 0.00 0.00 82 1007.8
20260506081245 63 348 0.9 4.3 0.00 0.00 0.00 82 1007.7
20260506080743 63 4 3.5 7.0 0.00 0.00 0.00 82 1007.7
20260506080239 63 10 5.2 6.1 0.00 0.00 0.00 82 1007.2
20260506073223 63 4 4.3 9.6 0.00 0.00 0.00 82 1007.2
20260506072720 63 28 5.2 9.6 0.00 0.00 0.00 81 1007.3
20260506072217 64 28 2.6 7.8 0.00 0.00 0.00 81 1007.5
20260506071715 64 7 2.6 11.3 0.00 0.00 0.00 81 1007.3
20260506071213 64 24 3.5 10.4 0.00 0.00 0.00 81 1007.3
20260506070709 64 21 7.0 13.9 0.00 0.00 0.00 81 1007.3
20260506070206 64 36 3.5 10.4 0.00 0.00 0.00 81 1007.3
20260506062143 65 6 4.3 12.2 0.00 0.00 0.00 80 1007.1
20260506061639 65 347 4.3 12.2 0.00 0.00 0.00 79 1007.3
20260506061137 66 1 5.2 13.0 0.00 0.00 0.00 79 1007.2
20260506060635 66 10 4.3 9.6 0.00 0.00 0.00 79 1007.1
20260506060132 66 13 4.3 8.7 0.00 0.00 0.00 79 1007.3
20260506051104 68 1 7.0 13.0 0.00 0.00 0.00 77 1007.0
20260506050602 68 12 2.6 7.8 0.00 0.00 0.00 77 1007.0
20260506045052 69 0 4.3 7.0 0.00 0.00 0.00 76 1007.1
20260506044550 69 0 3.5 8.7 0.00 0.00 0.00 76 1006.9
20260506044046 69 347 3.5 9.6 0.00 0.00 0.00 75 1007.1
20260506043543 69 343 2.6 8.7 0.00 0.00 0.00 75 1007.0
20260506043042 70 4 3.5 7.0 0.00 0.00 0.00 74 1007.2
20260506042541 70 259 0.9 9.6 0.00 0.00 0.00 73 1007.0
20260506042038 70 353 3.5 8.7 0.00 0.00 0.00 73 1006.9
20260506041537 70 8 3.5 8.7 0.00 0.00 0.00 73 1007.0
20260506041033 70 354 5.2 12.2 0.00 0.00 0.00 74 1006.9
20260506040531 71 359 5.2 7.8 0.00 0.00 0.00 74 1006.8
20260506040027 71 359 3.5 9.6 0.00 0.00 0.00 74 1006.8
20260506035524 71 356 5.2 9.6 0.00 0.00 0.00 74 1006.5
20260506035021 71 1 4.3 14.8 0.00 0.00 0.00 74 1006.8
20260506034518 71 358 7.8 13.0 0.00 0.00 0.00 73 1006.5
20260506034015 72 12 3.5 9.6 0.00 0.00 0.00 73 1006.4
20260506033512 72 6 4.3 9.6 0.00 0.00 0.00 73 1006.4
20260506033009 72 348 4.3 11.3 0.00 0.00 0.00 73 1005.9
20260506032507 73 12 6.1 13.9 0.00 0.00 0.00 72 1005.9
20260506032003 73 28 2.6 11.3 0.00 0.00 0.00 73 1005.9
20260506031501 73 23 9.6 12.2 0.00 0.00 0.00 72 1005.7
20260506030958 73 11 3.5 8.7 0.00 0.00 0.00 73 1005.5
20260506030456 74 358 2.6 11.3 0.00 0.00 0.00 72 1005.5
20260506025952 74 0 5.2 9.6 0.00 0.00 0.00 72 1005.4
20260506025449 74 63 4.3 8.7 0.00 0.00 0.00 72 1005.7
20260506024946 75 3 4.3 12.2 0.00 0.00 0.00 71 1005.9
20260506024443 75 351 6.1 9.6 0.00 0.00 0.00 70 1005.5
20260506023938 75 5 5.2 11.3 0.00 0.00 0.00 70 1005.2
20260506023436 75 359 4.3 7.0 0.00 0.00 0.00 70 1004.9
20260506022932 76 357 4.3 11.3 0.00 0.00 0.00 69 1005.2
20260506022430 76 311 3.5 6.1 0.00 0.00 0.00 69 1005.0
20260506021928 77 348 6.1 12.2 0.00 0.00 0.00 68 1004.9
20260506021425 77 359 3.5 7.8 0.00 0.00 0.00 68 1004.8
20260506020922 77 356 3.5 7.0 0.00 0.00 0.00 68 1004.5
20260506020420 78 1 4.3 9.6 0.00 0.00 0.00 68 1004.4
20260506015916 78 356 4.3 7.8 0.00 0.00 0.00 67 1004.3
20260506015414 78 357 3.5 7.8 0.00 0.00 0.00 67 1004.0
20260506014911 78 15 3.5 6.1 0.00 0.00 0.00 67 1003.7
20260506014408 78 358 6.1 11.3 0.00 0.00 0.00 66 1003.9
20260506013904 79 19 4.3 10.4 0.00 0.00 0.00 66 1003.5
20260506013402 79 15 4.3 6.1 0.00 0.00 0.00 67 1003.8
20260506012858 79 354 1.7 5.2 0.00 0.00 0.00 66 1003.7
20260506012355 79 3 1.7 4.3 0.00 0.00 0.00 67 1003.3
20260506011852 79 356 1.7 7.0 0.00 0.00 0.00 65 1003.2
20260506011349 80 332 2.6 8.7 0.00 0.00 0.00 65 1003.3
20260506010846 80 332 0.9 3.5 0.00 0.00 0.00 65 1003.7
20260506010344 80 323 0.9 4.3 0.00 0.00 0.00 65 1003.4
20260506005841 80 294 1.7 4.3 0.00 0.00 0.00 66 1003.2
20260506005338 80 8 3.5 5.2 0.00 0.00 0.00 66 1003.0
20260506004833 80 7 4.3 7.0 0.00 0.00 0.00 66 1002.7
20260506004331 80 355 1.7 4.3 0.00 0.00 0.00 66 1002.9
20260506003827 80 322 2.6 4.3 0.00 0.00 0.00 66 1002.9
20260506003324 80 346 3.5 7.0 0.00 0.00 0.00 65 1002.9
20260506002820 81 330 2.6 7.0 0.00 0.00 0.00 65 1002.9
20260506002317 83 299 2.6 3.5 0.00 0.00 0.00 65 1002.8
20260506001812 84 309 1.7 7.8 0.00 0.00 0.00 64 1003.0
20260506001310 85 296 4.3 7.0 0.00 0.00 0.00 71 1002.7
20260506000807 85 311 2.6 2.6 0.00 0.00 0.00 76 1002.7
20260506000304 85 173 1.7 7.8 0.00 0.00 0.00 75 1002.6
20260505235801 85 156 5.2 6.1 0.00 0.00 0.00 75 1002.3
20260505235259 86 194 3.5 10.4 0.00 0.00 0.00 74 1002.2
20260505234755 86 192 0.9 7.0 0.00 0.00 0.00 74 1002.4
20260505234253 86 163 1.7 8.7 0.00 0.00 0.00 74 1002.2
20260505233749 86 128 3.5 11.3 0.00 0.00 0.00 73 1002.3
20260505233247 86 171 3.5 7.8 0.00 0.00 0.00 73 1002.0
20260505232745 86 180 4.3 10.4 0.00 0.00 0.00 72 1002.2
20260505232242 86 163 4.3 11.3 0.00 0.00 0.00 72 1001.9
20260505231738 87 200 2.6 10.4 0.00 0.00 0.00 71 1001.9
20260505231237 87 176 8.7 13.0 0.00 0.00 0.00 72 1002.0
20260505230735 87 166 6.1 13.9 0.00 0.00 0.00 71 1002.0
20260505230231 88 152 7.8 8.7 0.00 0.00 0.00 70 1001.7
20260505225728 89 151 1.7 8.7 0.00 0.00 0.00 69 1001.9
20260505225225 89 176 2.6 4.3 0.00 0.00 0.00 63 1001.9
20260505224720 89 166 3.5 7.8 0.00 0.00 0.00 62 1001.9
20260505224218 91 169 4.3 7.0 0.00 0.00 0.00 59 1001.8
20260505223716 90 167 1.7 6.1 0.00 0.00 0.00 59 1001.7
20260505223212 90 199 4.3 7.0 0.00 0.00 0.00 56 1001.7
20260505222708 90 217 4.3 10.4 0.00 0.00 0.00 56 1001.7
20260505222203 91 213 3.5 7.8 0.00 0.00 0.00 58 1001.5
20260505221702 91 183 1.7 6.1 0.00 0.00 0.00 59 1001.6
20260505221158 90 181 3.5 8.7 0.00 0.00 0.00 58 1001.6
20260505220655 90 172 1.7 7.8 0.00 0.00 0.00 59 1001.8
20260505220153 89 183 4.3 9.6 0.00 0.00 0.00 58 1001.7
20260505215650 91 178 1.7 6.1 0.00 0.00 0.00 58 1001.7
20260505215148 92 184 3.5 7.8 0.00 0.00 0.00 58 1001.7
20260505214646 91 169 5.2 8.7 0.00 0.00 0.00 57 1001.6
20260505214143 91 259 0.0 7.8 0.00 0.00 0.00 58 1001.7
20260505213640 92 208 3.5 7.8 0.00 0.00 0.00 55 1001.9
20260505213137 93 254 0.0 6.1 0.00 0.00 0.00 56 1001.5
20260505212632 91 271 2.6 8.7 0.00 0.00 0.00 57 1001.8
20260505212131 91 177 6.1 11.3 0.00 0.00 0.00 55 1001.7
20260505211627 91 209 4.3 9.6 0.00 0.00 0.00 56 1002.0
20260505211124 91 193 5.2 10.4 0.00 0.00 0.00 54 1002.1
20260505210621 92 247 3.5 7.0 0.00 0.00 0.00 53 1001.7
20260505210118 92 211 4.3 7.8 0.00 0.00 0.00 55 1002.1
20260505205615 91 238 3.5 9.6 0.00 0.00 0.00 54 1002.2
20260505205113 91 250 5.2 10.4 0.00 0.00 0.00 56 1002.2
20260505204610 91 220 6.1 13.0 0.00 0.00 0.00 55 1002.2
20260505204108 91 177 3.5 9.6 0.00 0.00 0.00 58 1002.4
20260505203604 91 238 3.5 11.3 0.00 0.00 0.00 57 1002.3
20260505203101 91 237 3.5 7.8 0.00 0.00 0.00 57 1002.2
20260505202557 91 240 3.5 14.8 0.00 0.00 0.00 58 1002.6
20260505202053 91 241 4.3 10.4 0.00 0.00 0.00 56 1002.5
20260505201550 91 217 5.2 9.6 0.00 0.00 0.00 56 1002.6
20260505201048 91 194 3.5 8.7 0.00 0.00 0.00 57 1002.5
20260505200545 91 224 4.3 10.4 0.00 0.00 0.00 55 1002.7
20260505200042 90 241 3.5 10.4 0.00 0.00 0.00 59 1002.5
20260505195538 89 202 4.3 13.9 0.00 0.00 0.00 59 1002.6
20260505195036 89 223 3.5 13.9 0.00 0.00 0.00 58 1002.8
20260505194533 89 202 2.6 10.4 0.00 0.00 0.00 60 1002.6
20260505194028 89 225 6.1 9.6 0.00 0.00 0.00 60 1002.6
20260505193526 88 240 2.6 14.8 0.00 0.00 0.00 60 1003.0
20260505193023 89 187 4.3 13.0 0.00 0.00 0.00 62 1003.0
20260505192521 88 208 7.8 10.4 0.00 0.00 0.00 61 1003.0
20260505192018 88 188 8.7 10.4 0.00 0.00 0.00 63 1002.9
20260505191517 88 243 4.3 13.0 0.00 0.00 0.00 62 1003.0
20260505191015 87 182 4.3 7.8 0.00 0.00 0.00 65 1002.9
20260505190509 87 233 5.2 12.2 0.00 0.00 0.00 65 1002.8
20260505190005 87 194 2.6 13.0 0.00 0.00 0.00 65 1003.2
20260505185502 86 252 7.8 13.0 0.00 0.00 0.00 66 1003.2
20260505184958 87 221 7.0 12.2 0.00 0.00 0.00 66 1003.3
20260505184455 86 217 7.8 14.8 0.00 0.00 0.00 66 1003.4
20260505183952 86 225 5.2 8.7 0.00 0.00 0.00 68 1003.2
20260505183449 86 234 9.6 10.4 0.00 0.00 0.00 67 1003.3
20260505182945 85 229 6.1 11.3 0.00 0.00 0.00 69 1003.3
20260505182442 86 180 4.3 9.6 0.00 0.00 0.00 67 1003.7
20260505181938 85 234 7.8 13.9 0.00 0.00 0.00 68 1003.5
20260505181436 85 217 6.1 11.3 0.00 0.00 0.00 70 1003.7
20260505180933 84 238 5.2 11.3 0.00 0.00 0.00 71 1003.5
20260505180429 84 228 5.2 11.3 0.00 0.00 0.00 70 1003.3
20260505175926 85 232 3.5 11.3 0.00 0.00 0.00 70 1003.4
20260505175422 85 233 2.6 10.4 0.00 0.00 0.00 71 1003.4
20260505174918 84 206 6.1 12.2 0.00 0.00 0.00 71 1003.5
20260505174416 84 219 7.0 15.6 0.00 0.00 0.00 70 1003.7
20260505173912 84 224 12.2 14.8 0.00 0.00 0.00 71 1003.7
20260505173408 82 218 7.8 14.8 0.00 0.00 0.00 73 1003.4
20260505172905 82 222 8.7 15.6 0.00 0.00 0.00 73 1003.5
20260505172403 82 197 7.0 13.0 0.00 0.00 0.00 73 1003.5
20260505171903 83 196 5.2 11.3 0.00 0.00 0.00 73 1003.5
20260505171400 82 207 9.6 20.9 0.00 0.00 0.00 73 1003.4
20260505170856 83 231 13.0 14.8 0.00 0.00 0.00 73 1003.2
20260505170354 82 230 3.5 18.2 0.00 0.00 0.00 74 1003.4
20260505165848 82 215 3.5 16.5 0.00 0.00 0.00 75 1003.2
20260505165344 81 215 3.5 14.8 0.00 0.00 0.00 75 1003.4
20260505164840 81 194 7.8 18.2 0.00 0.00 0.00 76 1003.2
20260505164337 81 201 4.3 12.2 0.00 0.00 0.00 76 1003.3
20260505163836 81 215 2.6 23.5 0.00 0.00 0.00 76 1003.3
20260505163334 81 207 6.1 17.4 0.00 0.00 0.00 76 1003.3
20260505162832 81 207 7.8 13.9 0.00 0.00 0.00 76 1003.2
20260505162328 81 189 7.0 13.9 0.00 0.00 0.00 76 1003.7
20260505161825 81 168 9.6 16.5 0.00 0.00 0.00 77 1003.7
20260505161322 80 186 9.6 11.3 0.00 0.00 0.00 77 1003.7
20260505160819 80 219 4.3 13.9 0.00 0.00 0.00 77 1003.5
20260505160318 80 228 7.8 15.6 0.00 0.00 0.00 78 1003.4
20260505153256 79 207 3.5 19.1 0.00 0.00 0.00 79 1003.5
20260505152753 79 215 8.7 18.2 0.00 0.00 0.00 80 1003.5
20260505152250 79 208 9.6 13.0 0.00 0.00 0.00 80 1003.3
20260505151744 78 219 3.5 20.9 0.00 0.00 0.00 81 1003.4
20260505151242 78 216 6.1 13.0 0.00 0.00 0.00 81 1003.4
20260505150738 78 209 3.5 12.2 0.00 0.00 0.00 81 1003.7
20260505150236 77 218 4.3 18.2 0.00 0.00 0.00 83 1003.8